Flag for Burundi Weather past 2 weeks in Gitega, Burundi

61 °F

Passing clouds.

Feels Like: 61 °F
Forecast: 56 / 76 °F
Wind: No wind

Location: Kigali Airport

Current Time: Dec 1, 2015 at 5:15:50 AM

Latest Report: Dec 1, 2015 at 5:00 AM

Visibility: N/A

Pressure: 30.15 "Hg (24.72 "Hg at 1679m altitude)

Humidity: 100%

Dew point: 61 °F

Location of GitegaLocation

Historic Weather in Gitega — Graph


Gitega temperature yesterday

Maximum temperature yesterday: 75 °F (at 3:00 PM)
Minimum temperature yesterday: 63 °F (at 1:00 AM)
Average temperature yesterday: 67 °F

Past Weeks' High & Low Weather Summary

High86 °F (Nov 25, 2:00 PM)100% (Nov 16, 4:00 AM)30.27 "Hg (Nov 16, 4:00 AM)
Low61 °F (Nov 16, 4:00 AM)46% (Nov 25, 2:00 PM)29.95 "Hg (Nov 21, 3:30 PM)
Average69 °F88%30.10 "Hg
* Reported Nov 16 4:00 AM — Dec 1 4:30 AM, Gitega, Weather by CustomWeather, © 2015

Note: Actual official high and low records may vary slightly from our data, if they occured in-between our weather recording intervals... More about our weather records


Gitega weather history for previous 24 hours

Time TempWeatherWind HumidityBarometerVisibility
4:30 AM
Tue, Dec 1
61 °FPassing clouds.No wind100%30.15 "HgN/A
4:00 AM61 °FPassing clouds.5 mph100%30.15 "HgN/A
3:30 AM61 °FPassing clouds.No wind100%30.15 "HgN/A
3:00 AM61 °FPassing clouds.3 mph100%30.15 "HgN/A
2:00 AM63 °FPassing clouds.No wind100%30.15 "HgN/A
1:30 AM63 °FPassing clouds.3 mph100%30.15 "HgN/A
12:30 AM64 °FPassing clouds.No wind100%30.18 "HgN/A
12:00 AM64 °FPassing clouds.No wind100%30.21 "HgN/A
11:30 PM
Mon, Nov 30
64 °FPassing clouds.3 mph100%30.21 "HgN/A
11:00 PM64 °FPassing clouds.No wind100%30.21 "HgN/A
10:30 PM64 °FPassing clouds.No wind100%30.21 "HgN/A
10:00 PM64 °FPassing clouds.No wind100%30.21 "HgN/A
9:30 PM66 °FPassing clouds.No wind100%30.21 "HgN/A
9:00 PM66 °FPassing clouds.No wind100%30.21 "HgN/A
8:30 PM66 °FPassing clouds.No wind100%30.18 "HgN/A
8:00 PM68 °FPassing clouds.No wind94%30.18 "HgN/A
7:30 PM68 °FPassing clouds.6 mph100%30.15 "HgN/A
7:00 PM68 °FPassing clouds.5 mph100%30.15 "HgN/A
6:30 PM70 °FPassing clouds.7 mph94%30.15 "HgN/A
6:00 PM72 °FPassing clouds.6 mph78%30.15 "HgN/A
5:30 PM73 °FScattered clouds.6 mph74%30.12 "HgN/A
5:00 PM75 °FScattered clouds.6 mph69%30.12 "HgN/A
4:30 PM75 °FScattered clouds.6 mph74%30.12 "HgN/A
4:00 PM75 °FScattered clouds.6 mph74%30.12 "HgN/A
3:30 PM75 °FScattered clouds.6 mph74%30.12 "HgN/A
3:00 PM75 °FScattered clouds.6 mph74%30.12 "HgN/A
2:30 PM73 °FBroken clouds.7 mph78%30.15 "HgN/A
2:00 PM72 °FBroken clouds.7 mph83%30.15 "HgN/A
1:30 PM70 °FBroken clouds.7 mph94%30.18 "HgN/A
1:00 PM70 °FPartly sunny.No wind94%30.18 "HgN/A
12:30 PM72 °FPartly sunny.No wind88%30.21 "HgN/A
12:00 PM70 °FPartly sunny.No wind94%30.21 "HgN/A
11:30 AM70 °FPartly sunny.No wind94%30.24 "HgN/A
11:00 AM70 °FLight rain. Partly sunny.No wind94%30.24 "HgN/A
10:30 AM68 °FLight rain. Partly sunny.6 mph100%30.24 "HgN/A
10:00 AM66 °FLight rain. Partly sunny.8 mph100%30.27 "HgN/A
9:00 AM64 °FLight rain. Partly sunny.3 mph100%30.27 "HgN/A
8:30 AM63 °FLight rain. Partly sunny.3 mph100%30.27 "HgN/A
7:30 AM63 °FRain. Partly sunny.3 mph100%30.24 "Hg4 mi
7:00 AM63 °FRain. Fog.6 mph100%30.24 "Hg2 mi
6:30 AM64 °FRain. Fog.7 mph100%30.21 "Hg1 mi
5:00 AM63 °FPassing clouds.3 mph100%30.15 "HgN/A
Weather by CustomWeather, © 2015

See weather overviewHow to use our weather pages